Satellite-Ground Cal/Val Region Overpasses Predictions

Prediction of Satellite NPP Overpassing Cal/Val Region: PacN

Region Location: (Latitude: 15.00, Longitude: 179.40) to (Latitude: 23.50, Longitude: 200.60).

Table of predicted overpasses for the next 14.0 days since TLE Epoch: 3/15/2025
Interval Starting Time Starting Location Ending Time Ending Location
1 03/16/2025 13:37:37 ( 18.78, 179.99) 03/16/2025 13:38:18 ( 16.37, 179.41)
2 03/21/2025 01:13:28 ( 19.23, 179.99) 03/21/2025 01:14:08 ( 21.58, 179.41)
3 03/21/2025 13:42:30 ( 23.47, 179.61) 03/21/2025 13:42:44 ( 22.65, 179.40)
